This is the latest recevied weather packets stored in our database for station/object HA3YA-WX. If no packets are shown the sender has not sent any weather packets the latest 10 day(s).
| Time | Temp. | Humidity | Pressure | Rain* | Wind** | Luminosity | Snow |
|---|---|---|---|---|---|---|---|
| 1777569692 | 13.33° C | 26% | 1013.3 hPa | - | - | - | - |
| 1777569093 | 13.89° C | 25% | 1013.3 hPa | - | - | - | - |
| 1777568493 | 13.89° C | 25% | 1013.3 hPa | - | - | - | - |
| 1777567893 | 14.44° C | 25% | 1013.1 hPa | - | - | - | - |
| 1777567292 | 14.44° C | 25% | 1013.1 hPa | - | - | - | - |
| 1777566692 | 15° C | 25% | 1013.1 hPa | - | - | - | - |
| 1777566092 | 16.11° C | 25% | 1013.1 hPa | - | - | - | - |
| 1777565492 | 16.67° C | 24% | 1013.1 hPa | - | - | - | - |
| 1777564892 | 16.67° C | 25% | 1013.3 hPa | - | - | - | - |
| 1777564292 | 17.22° C | 25% | 1013.3 hPa | - | - | - | - |
| 1777563693 | 17.78° C | 25% | 1013.3 hPa | - | - | - | - |
| 1777563093 | 17.22° C | 25% | 1013.3 hPa | - | - | - | - |
| 1777562493 | 18.33° C | 24% | 1013.3 hPa | - | - | - | - |
| 1777561892 | 17.78° C | 25% | 1013 hPa | - | - | - | - |
| 1777561292 | 17.78° C | 25% | 1013 hPa | - | - | - | - |
| 1777560692 | 17.78° C | 25% | 1013 hPa | - | - | - | - |
| 1777560092 | 17.78° C | 25% | 1013.6 hPa | - | - | - | - |
| 1777559492 | 18.33° C | 26% | 1013.6 hPa | - | - | - | - |
| 1777558892 | 17.78° C | 25% | 1013.6 hPa | - | - | - | - |
| 1777558292 | 17.78° C | 26% | 1013 hPa | - | - | - | - |
| 1777557693 | 17.78° C | 26% | 1013 hPa | - | - | - | - |
| 1777557093 | 17.78° C | 26% | 1013 hPa | - | - | - | - |
| 1777556492 | 17.22° C | 26% | 1013 hPa | - | - | - | - |
| 1777555892 | 17.78° C | 26% | 1013 hPa | - | - | - | - |
| 1777555292 | 17.22° C | 26% | 1013 hPa | - | - | - | - |
* Rain since midnight (hover to see other rain measurements)
** Current wind speed in m/s (hover to see current wind gust speed)